Location: Unspecified
(35.3830°S, 0.0000°E)
Time: 10:35:55
(UTC+00:00)

ISS - Visible Passes

Search period start: 21 May 2019 00:00
Search period end: 31 May 2019 00:00
Orbit: 407 x 410 km, 51.6° (Epoch: 21 May)

Date Brightness Start Highest point End Pass type
(mag) Time Alt. Az. Time Alt. Az. Time Alt. Az.
22 May -0.7 05:52:28 10° N 05:54:44 17° NE 05:57:02 10° E visible
24 May -2.9 05:45:55 10° NNW 05:49:09 50° NE 05:52:26 10° ESE visible
25 May -1.5 04:56:59 19° NNE 04:58:18 24° NE 05:01:04 10° ESE visible
26 May -3.6 05:42:16 28° WNW 05:43:42 52° SW 05:47:00 10° SE visible
27 May -1.9 04:54:18 28° SE 04:54:18 28° SE 04:56:03 10° SE visible
27 May -1.8 06:27:38 10° WSW 06:29:37 15° SSW 06:31:36 10° S visible
28 May -2.2 05:38:49 22° SSW 05:38:49 22° SSW 05:41:07 10° SSE visible
29 May -0.7 04:50:21 10° SSE 04:50:21 10° SSE 04:50:24 10° SSE visible
30 May -1.2 05:34:27 10° S 05:34:27 10° S 05:34:37 10° S visible
